Location: Detroit
(42.3310°N, 83.0460°W)
Time: 23:56:56
(UTC-04:00)

ISS - Visible Passes

Search period start: 21 March 2023 00:00
Search period end: 31 March 2023 00:00
Orbit: 414 x 423 km, 51.6° (Epoch: 22 March)

Date Brightness Start Highest point End Pass type
(mag) Time Alt. Az. Time Alt. Az. Time Alt. Az.
21 Mar -1.8 20:39:46 10° WNW 20:42:38 25° NNW 20:45:30 10° NE visible
21 Mar -0.8 22:18:01 10° NW 22:19:12 15° NNW 22:19:12 15° NNW visible
22 Mar -1.4 21:29:56 10° NW 21:32:12 17° N 21:33:24 14° NNE visible
23 Mar -1.4 20:41:44 10° NW 20:44:09 18° N 20:46:34 10° NE visible
23 Mar -0.9 22:19:21 10° NW 22:20:28 15° NNW 22:20:28 15° NNW visible
24 Mar -1.5 21:31:26 10° NW 21:33:45 17° N 21:34:32 16° NNE visible
25 Mar -1.4 20:43:24 10° NW 20:45:37 16° N 20:47:51 10° NE visible
25 Mar -1.1 22:20:15 10° NW 22:21:30 18° NNW 22:21:30 18° NNW visible
26 Mar -2.0 21:32:24 10° NW 21:35:07 22° NNE 21:35:30 22° NNE visible
27 Mar -1.7 20:44:29 10° NW 20:46:58 19° N 20:49:27 10° ENE visible
27 Mar -1.3 22:20:58 10° NW 22:22:25 23° NW 22:22:25 23° NW visible
28 Mar -2.9 21:33:04 10° NW 21:36:14 37° NNE 21:36:23 37° NNE visible
29 Mar -2.3 20:45:10 10° NW 20:48:06 27° NNE 20:50:22 14° ENE visible
29 Mar -1.5 22:21:46 10° WNW 22:23:18 24° WNW 22:23:18 24° WNW visible
30 Mar -4.0 21:33:41 10° NW 21:37:02 87° NNE 21:37:18 74° ESE visible
